Theta_e
310 310 311 311 311 312 312 311 311 309 306 302 299 297 297 297 297 296 296 296 296 296 295 295 295 294 293 293 293 293 293 293 293 293 292 292 292 291 290 290 289 289 289 289 289 289 288 288 287 287 287 287 286 286 286 286 285 285 285 284 284 284 284 284 284 284 284 284 284 284 284 284 284 284 283 283 283 283 283 282 282 283 282 282 282
310 310 311 311 312 312 312 311 310 308 305 301 298 296 297 297 296 296 295 295 295 295 295 295 294 294 293 293 293 293 293 293 293 293 292 292 291 291 290 290 289 289 289 289 289 288 288 287 287 287 287 286 286 286 286 285 285 285 284 284 284 284 284 283 283 284 284 284 284 284 284 284 284 284 283 283 283 283 283 282 282 282 282 282 282
310 310 311 311 312 312 312 311 310 307 303 299 297 296 296 296 296 295 295 295 294 295 294 294 294 294 293 293 293 293 292 292 292 292 292 292 291 290 290 290 289 289 289 289 289 288 288 287 287 287 287 286 286 286 285 285 285 285 284 284 284 283 283 283 283 283 284 284 284 284 284 284 284 284 283 283 283 282 282 282 282 282 282 282 281
311 311 311 311 312 312 312 310 308 306 302 298 296 295 296 295 295 295 295 294 294 294 294 294 294 293 293 293 293 293 292 292 292 292 292 292 291 290 290 290 289 289 289 289 288 288 287 287 287 287 286 286 286 286 285 285 285 285 284 284 284 283 283 283 283 283 283 284 284 284 284 284 284 284 283 283 283 282 282 282 282 282 282 281 281
311 312 311 311 312 312 311 309 307 305 301 298 295 295 295 295 295 295 294 294 294 294 294 294 293 293 293 293 293 293 292 292 292 292 292 292 291 290 290 290 289 289 289 289 288 288 287 287 287 286 286 286 286 286 286 285 285 285 284 284 283 283 283 283 283 283 283 283 284 284 284 283 283 283 283 283 283 282 282 282 282 281 281 281 281
311 312 312 311 311 312 311 308 306 304 301 297 295 295 295 295 295 295 294 294 294 294 294 294 293 293 293 293 293 292 292 292 292 292 292 292 292 292 291 290 289 289 289 288 288 288 287 287 286 286 286 286 286 286 286 285 285 285 284 284 283 283 283 283 282 283 283 283 283 283 283 283 283 283 283 282 282 282 282 282 282 281 281 281 281
310 311 311 311 311 311 310 307 305 303 300 296 295 294 294 295 295 294 294 294 294 294 294 294 293 293 293 293 293 292 292 292 292 292 292 292 293 292 291 290 289 289 289 288 288 288 287 287 286 286 286 286 286 286 286 285 285 284 284 283 283 283 283 283 282 282 283 283 283 283 283 283 283 283 283 282 281 281 281 281 282 282 281 280 280
310 311 311 311 311 311 309 306 304 302 299 296 294 294 294 294 294 294 294 294 294 293 293 293 293 293 293 293 292 292 292 292 292 292 292 293 293 293 291 290 289 289 288 288 288 287 287 286 286 286 286 286 286 286 285 285 284 284 284 283 283 283 283 282 282 282 282 283 283 283 283 283 283 282 282 282 281 280 280 279 280 281 281 280 280
309 310 310 310 310 310 309 306 303 301 299 296 295 294 294 294 294 294 294 293 293 293 293 293 293 293 293 292 292 292 292 291 291 292 292 292 293 293 292 290 289 289 288 288 288 287 287 286 286 286 286 286 286 285 285 284 284 284 284 283 283 283 283 283 282 282 282 282 282 282 282 282 282 282 282 281 280 280 279 279 279 279 280 280 280
309 309 309 309 309 310 310 308 305 301 299 297 295 294 293 293 294 294 293 293 293 293 293 293 292 292 292 292 292 292 292 291 291 291 292 292 293 293 292 290 289 289 288 288 288 287 287 286 286 286 286 285 285 285 285 285 285 285 284 284 284 283 283 283 282 282 282 282 282 282 282 282 282 281 281 281 280 279 279 279 279 279 278 279 280
309 309 309 309 309 310 310 310 307 304 301 299 297 295 294 293 293 293 293 293 293 293 293 293 292 292 292 292 292 292 291 291 291 291 291 292 293 294 292 291 290 289 288 288 288 287 287 286 286 286 285 285 285 286 286 286 286 286 285 285 284 284 284 283 283 282 282 282 282 282 282 282 281 281 281 280 279 279 278 278 278 278 277 277 278
310 310 310 310 310 310 310 310 309 307 303 301 299 298 295 293 293 293 293 293 293 293 292 292 292 292 292 292 292 291 291 291 291 291 291 292 294 294 293 291 290 289 288 288 288 287 287 286 286 286 286 286 286 287 287 287 286 286 285 285 285 285 284 284 283 283 282 282 282 282 281 281 281 280 280 279 279 278 278 278 277 277 276 276 276
309 310 310 310 310 310 310 310 310 308 306 303 301 299 297 294 293 293 293 293 293 292 292 292 292 292 292 292 291 291 291 291 290 290 291 292 294 294 293 291 290 289 289 288 288 288 287 287 287 287 287 287 287 287 287 287 286 286 286 285 285 285 284 284 284 283 282 282 282 282 281 280 280 280 280 278 278 278 278 277 277 276 276 275 275
307 309 310 310 310 310 310 310 310 308 306 304 303 300 298 295 293 293 293 293 292 292 292 292 292 292 292 292 291 291 291 291 290 289 291 293 294 293 292 291 290 289 289 288 288 287 287 287 287 287 287 287 287 287 287 287 286 286 286 286 286 285 285 284 284 283 282 282 282 281 281 280 280 280 279 278 277 277 277 277 276 276 275 275 275
305 307 309 309 310 310 309 310 309 308 306 305 303 301 299 296 294 293 293 292 292 292 292 292 292 292 292 292 291 291 291 290 289 289 291 293 293 293 292 291 291 290 289 288 288 287 287 287 287 287 287 287 287 287 287 286 286 286 286 286 286 286 285 285 284 283 283 282 281 281 280 280 280 280 279 277 276 276 276 275 275 275 275 275 275
303 304 306 308 308 309 309 309 309 308 306 304 302 301 299 297 295 293 293 292 292 292 292 292 292 292 292 291 291 291 291 289 288 289 291 292 293 293 292 291 291 290 289 288 287 287 287 287 287 287 287 287 287 287 286 286 286 286 286 286 286 286 285 285 284 284 283 283 282 281 280 280 279 278 277 275 275 275 275 275 275 275 275 275 275
302 302 303 305 306 307 308 308 308 307 305 303 302 301 300 298 296 294 293 292 292 292 292 292 293 293 292 291 291 291 290 289 288 289 291 291 293 293 292 291 291 290 289 288 287 287 287 287 287 287 287 287 287 286 286 286 286 286 286 286 286 286 286 285 285 284 283 282 282 281 280 279 278 277 277 276 275 275 275 275 275 274 274 274 275
301 301 302 303 304 305 306 306 305 305 304 303 302 300 299 298 297 296 295 294 294 294 294 293 293 292 291 291 291 290 290 289 288 289 290 292 293 292 291 291 290 290 289 288 287 287 287 287 287 287 287 287 287 286 286 286 286 286 286 286 286 286 286 285 285 284 283 282 281 281 280 279 278 278 277 275 275 275 275 275 275 274 273 273 273
301 301 301 301 302 302 303 303 303 302 302 301 301 300 300 299 299 298 297 296 296 295 294 294 293 292 291 290 290 289 289 289 289 290 291 292 293 292 291 290 289 289 289 288 288 287 287 287 287 287 287 287 287 286 286 285 286 286 286 286 286 286 286 285 285 284 283 282 282 281 281 280 279 278 276 275 275 274 274 274 274 273 273 273 272
301 300 299 299 299 300 299 299 300 300 300 300 299 299 299 299 299 298 297 297 296 295 294 293 292 290 290 289 289 289 289 289 289 290 290 291 292 292 290 289 289 288 288 288 288 288 287 287 287 287 287 287 286 286 286 285 285 286 285 285 285 286 285 284 284 283 283 283 282 282 281 280 279 277 276 275 275 274 274 274 273 273 273 272 272
300 299 299 298 298 298 298 298 298 298 298 298 297 297 296 296 296 295 295 294 294 293 292 291 290 289 289 289 289 289 289 289 289 289 290 290 291 291 290 289 288 288 288 288 288 288 287 287 287 287 287 286 286 286 286 285 285 285 285 285 285 284 284 284 284 283 282 282 282 281 281 280 279 277 276 275 274 274 273 273 273 273 272 272 271
300 299 299 298 298 298 298 297 297 297 296 295 295 294 294 293 293 292 292 292 291 291 290 290 289 289 289 289 289 289 289 289 289 289 289 289 290 290 290 289 288 287 287 288 287 287 287 287 287 287 287 286 286 286 285 285 285 285 285 285 284 284 283 283 283 282 282 282 281 281 280 279 278 277 276 275 274 273 273 273 273 272 272 271 271
299 299 298 298 298 297 297 296 296 295 294 294 293 293 292 292 291 291 290 290 290 290 289 289 289 289 289 289 289 288 288 288 288 289 289 289 289 289 289 288 287 287 287 287 287 287 287 287 287 287 286 286 286 286 285 285 284 284 284 284 283 283 282 281 281 281 281 281 280 280 279 278 277 276 276 275 274 273 273 273 272 272 272 271 271
299 298 298 297 297 297 296 296 295 294 294 293 293 292 292 291 291 290 290 290 289 289 289 289 288 288 288 288 288 288 288 288 288 288 288 288 288 288 288 288 287 287 287 287 287 287 287 287 287 287 286 286 286 285 285 284 284 284 284 283 282 282 281 280 280 280 280 280 279 279 278 277 276 275 275 274 273 273 273 272 272 272 271 271 271
299 298 298 297 297 296 296 295 295 294 294 293 293 292 292 291 291 291 290 290 290 290 289 289 289 289 288 288 288 288 288 288 288 288 288 287 287 287 287 287 287 287 286 287 287 287 287 287 286 286 286 286 285 285 285 284 284 283 283 282 282 281 280 280 280 280 280 279 279 278 277 276 275 274 274 273 273 273 272 272 272 271 271 271 271
298 298 298 297 297 296 296 295 295 294 294 293 293 292 292 291 291 291 290 290 290 290 290 289 289 289 289 289 289 289 288 288 288 288 287 287 287 287 287 286 286 286 286 286 286 286 286 286 286 286 286 285 285 285 284 284 283 283 282 281 281 280 280 280 280 280 279 279 278 277 277 276 275 274 273 273 273 272 272 272 271 271 270 270 270
298 298 297 297 297 296 296 296 295 295 295 294 294 293 293 292 292 291 291 291 291 291 291 290 290 290 290 291 290 290 289 289 289 289 288 288 287 287 287 286 286 286 285 285 285 285 285 285 285 285 284 284 284 284 284 283 283 282 281 280 280 280 280 280 280 279 278 278 277 276 276 275 274 273 273 272 272 272 272 271 271 271 270 270 270
297 297 297 297 297 296 296 295 295 295 294 294 293 292 292 292 292 291 291 291 291 291 290 290 290 290 290 290 290 289 289 289 289 289 288 288 288 287 287 287 287 286 286 286 285 285 284 284 284 283 283 283 283 283 283 282 282 281 279 279 279 279 279 279 278 278 277 277 276 275 275 274 274 273 272 272 272 272 271 271 270 270 270 269 269
295 295 295 295 294 294 293 293 292 292 291 291 291 291 291 291 290 290 290 290 290 290 290 290 290 290 289 289 289 289 289 289 289 288 288 288 288 288 288 287 287 287 286 286 285 285 285 284 284 283 283 282 282 282 282 281 280 279 279 278 278 278 278 278 277 276 276 275 275 274 274 273 273 272 272 271 271 271 270 270 270 269 269 269 269
293 293 293 292 292 291 291 291 291 291 290 290 290 290 290 290 290 290 290 290 290 290 290 290 290 289 289 289 289 289 289 289 289 289 289 288 288 288 288 288 287 287 286 285 285 285 285 285 284 284 283 282 282 281 280 279 279 278 278 278 278 278 277 277 276 276 275 275 274 274 273 273 272 272 271 271 271 270 270 270 269 269 268 268 269
292 292 291 291 291 291 291 291 291 291 290 290 290 290 290 290 290 290 290 290 290 290 290 290 289 289 290 290 289 289 289 289 289 289 289 289 289 288 288 288 287 286 285 284 284 284 284 283 283 283 282 281 281 280 279 278 278 278 278 278 278 277 277 276 276 275 275 275 274 274 273 272 272 271 271 270 270 270 269 269 268 268 268 268 268
291 291 291 291 291 291 291 291 291 291 290 290 290 290 290 290 290 290 290 290 290 289 289 289 289 289 289 289 289 289 289 289 289 289 289 289 288 288 288 287 286 285 284 283 283 283 282 281 281 281 280 280 279 279 278 278 277 277 277 277 277 277 276 276 275 275 274 274 274 273 272 272 272 271 270 270 269 269 269 269 268 268 268 268 268
291 291 291 291 291 291 291 291 291 290 290 290 290 290 290 290 290 290 290 290 290 289 289 289 289 289 289 289 289 289 289 289 289 289 289 288 288 288 287 286 285 284 282 281 281 281 281 280 279 279 278 278 278 278 277 277 277 277 277 276 276 276 275 275 275 274 274 273 273 272 272 272 271 270 270 269 269 268 268 268 268 268 268 268 268
291 291 291 291 290 291 290 290 290 290 290 290 290 290 290 290 289 289 289 289 289 289 289 289 289 289 289 289 289 289 289 289 289 289 288 288 288 287 287 286 285 283 281 280 280 280 280 279 278 278 278 277 277 277 277 277 277 276 276 276 275 275 275 275 274 274 273 273 272 272 271 271 270 270 269 268 268 268 268 268 267 267 267 268 268
291 291 290 290 290 290 290 290 290 290 290 289 289 289 289 289 289 289 289 289 289 289 289 290 289 289 289 289 289 289 289 288 288 288 288 288 287 287 286 285 285 284 282 281 280 279 279 278 278 277 277 277 277 277 277 276 276 276 276 275 275 275 274 274 274 273 273 272 272 271 270 270 269 269 268 268 268 267 267 267 267 267 267 267 267
291 291 291 291 291 290 290 290 290 290 289 289 289 289 289 289 289 289 290 290 290 290 290 289 289 289 289 289 289 288 288 288 288 287 287 287 286 285 284 284 284 283 282 281 279 278 278 278 277 277 277 277 276 276 276 276 276 275 275 275 274 274 273 273 273 272 272 271 270 270 269 269 268 268 268 268 267 267 267 267 267 267 267 267 267
291 291 291 291 291 291 290 290 290 290 290 290 290 290 290 290 290 290 290 290 290 290 289 289 289 288 288 288 288 287 287 287 287 286 286 285 284 283 282 282 281 280 280 279 278 277 276 277 277 277 277 277 276 276 276 276 275 275 275 274 274 273 273 273 272 272 271 270 269 269 268 268 268 267 267 267 267 267 267 267 267 267 267 267 267
291 291 291 291 291 291 291 291 291 290 290 290 290 290 290 290 290 290 289 289 289 289 289 288 288 288 287 287 287 286 286 286 285 285 284 284 283 282 281 280 279 278 277 276 276 275 275 275 276 276 276 276 276 276 276 275 275 275 274 274 274 273 273 272 271 270 270 269 269 268 268 268 268 267 267 267 267 267 267 267 267 267 267 267 267
291 291 291 291 291 291 291 290 290 290 290 290 290 290 290 289 289 289 289 289 288 288 288 287 287 287 286 286 286 285 285 284 284 283 283 282 282 281 280 279 278 276 275 274 274 274 274 275 275 275 275 275 275 275 275 275 274 274 274 273 273 272 271 270 270 269 269 269 269 268 268 268 267 267 267 267 267 267 267 267 267 267 267 267 267
291 291 291 291 291 290 290 290 290 290 290 289 289 289 289 289 288 288 288 288 287 287 287 287 286 286 286 285 285 285 284 283 282 282 281 281 280 280 279 278 278 277 275 274 274 274 274 274 274 275 275 275 275 275 274 274 274 273 272 272 271 270 270 270 270 269 269 269 268 268 268 267 267 267 267 267 267 267 267 267 266 266 266 266 266
291 291 290 290 290 290 290 289 289 289 289 289 288 288 288 287 287 287 287 287 287 287 286 286 286 285 285 285 284 284 283 282 281 281 280 279 279 278 277 277 277 276 275 275 274 274 274 274 274 274 274 274 274 273 273 273 272 271 271 270 270 270 270 270 269 269 269 268 268 268 267 267 267 267 267 267 267 266 266 266 266 266 266 266 265
290 290 290 289 289 289 289 288 288 288 288 287 287 287 287 287 287 286 286 286 286 286 286 285 285 284 284 283 283 282 282 281 281 280 279 278 277 277 276 276 275 275 275 274 274 274 274 274 274 273 273 273 272 272 272 271 271 271 270 270 270 270 269 269 269 268 268 268 268 268 268 267 267 267 267 267 267 266 266 266 266 266 265 265 265
289 289 289 288 288 288 288 287 287 287 287 286 286 286 286 286 286 286 286 285 285 285 284 284 283 283 282 282 281 281 280 280 280 279 278 277 277 276 275 275 275 275 275 274 274 274 273 273 273 272 272 271 271 271 271 271 270 270 270 270 269 269 269 269 268 268 268 268 268 268 268 268 267 267 267 267 267 266 266 266 265 265 265 265 264
288 288 287 287 287 287 287 286 286 286 286 286 286 285 285 285 285 285 284 284 284 283 283 282 282 281 281 281 280 280 279 279 279 278 278 277 276 275 275 275 274 274 274 274 273 273 272 272 272 271 271 271 270 270 270 270 270 270 269 269 269 269 269 268 268 268 268 268 268 268 268 267 267 267 267 266 266 266 265 265 265 265 264 264 264
287 287 286 286 286 286 286 286 285 285 285 285 284 284 284 284 284 283 283 283 282 282 282 281 281 280 280 279 279 279 278 278 277 277 276 276 275 275 274 274 273 273 273 273 272 272 271 271 271 270 270 270 270 270 270 270 270 269 269 269 269 269 269 268 268 268 268 268 268 267 267 267 267 266 266 266 265 265 265 265 265 265 265 264 264
286 286 286 286 285 285 285 285 285 284 284 284 284 283 283 283 282 282 282 281 281 281 280 280 279 279 278 278 278 277 277 276 276 275 274 274 274 273 273 273 272 272 272 272 272 271 271 271 270 270 270 270 270 270 270 269 269 269 269 269 269 269 268 268 268 268 268 267 267 267 267 266 266 266 266 265 265 265 265 265 265 265 265 265 265
285 285 285 285 285 285 284 284 284 284 283 283 283 282 282 282 281 281 281 280 280 279 279 278 278 278 277 277 276 276 275 275 274 273 273 273 272 272 272 272 271 271 271 271 271 271 271 270 270 270 270 270 270 269 269 269 269 269 268 268 268 268 268 268 267 267 267 267 267 267 267 267 266 266 266 266 266 266 265 265 265 265 265 265 265
285 284 284 284 284 284 283 283 283 283 282 282 282 281 281 281 280 280 280 279 279 278 278 277 277 276 276 275 275 274 274 273 273 272 272 272 271 271 271 271 271 271 270 270 270 270 270 270 270 270 270 269 269 269 269 268 268 268 268 268 267 267 267 267 267 267 267 267 267 267 267 267 267 267 266 266 266 266 265 265 265 265 265 265 265
284 284 283 283 283 283 282 282 282 281 281 281 280 280 280 279 279 279 278 278 277 277 277 276 276 275 275 274 274 273 273 272 272 271 271 271 271 270 270 270 270 270 270 270 270 270 270 269 269 269 269 269 269 268 268 268 267 267 267 267 267 268 268 268 268 268 268 268 267 267 267 267 267 267 266 266 266 265 265 265 265 265 265 265 264
283 283 283 282 282 282 281 281 280 280 280 279 279 279 278 278 277 277 277 276 276 276 275 275 274 274 274 273 273 272 272 272 271 271 271 270 270 270 270 270 270 270 270 270 269 269 269 269 269 269 268 268 268 267 267 267 267 267 267 268 268 268 268 268 268 268 268 267 267 267 267 267 267 266 266 266 265 265 265 265 265 265 264 264 264
282 282 281 281 280 280 280 279 279 279 278 278 278 277 277 276 276 276 275 275 275 274 274 274 273 273 272 272 272 271 271 271 271 270 270 270 270 270 269 269 269 269 269 269 269 269 269 268 268 268 268 267 267 267 267 267 267 268 268 268 268 268 268 268 268 267 267 267 267 267 267 267 267 266 266 265 265 265 265 265 265 264 264 264 264
Wind_Speed
37 36 36 35 35 34 33 33 33 33 35 39 40 38 36 35 33 32 30 28 27 26 24 23 21 20 18 17 15 14 13 12 11 11 10 9 8 8 8 8 8 9 9 9 8 9 10 10 10 10 10 10 10 11 11 11 12 12 13 15 16 17 18 19 22 25 25 24 25 25 26 28 29 29 31 32 32 33 34 35 36 37 37 37 36
37 37 37 37 36 35 34 33 34 35 37 41 42 40 38 36 34 33 31 29 28 26 24 23 21 20 18 17 16 14 13 12 11 11 9 8 8 8 8 8 9 10 10 10 10 11 11 11 11 11 11 12 12 12 12 12 13 14 15 16 17 18 19 20 22 26 27 27 27 27 27 29 30 31 32 33 34 35 35 36 37 38 38 38 37
38 37 37 38 37 35 35 35 36 38 40 43 43 41 39 37 35 33 31 30 28 26 25 23 22 21 19 18 16 15 13 12 11 10 8 7 7 7 8 9 10 11 11 12 12 12 12 12 12 12 13 13 13 13 14 14 15 15 16 17 18 19 20 21 23 25 28 29 29 29 30 31 31 32 33 34 35 36 36 37 37 38 38 38 38
38 39 38 38 37 36 36 37 38 40 42 44 44 42 39 38 36 34 32 30 29 27 26 25 24 22 21 19 17 15 13 12 11 9 8 7 6 7 8 9 11 12 12 13 13 13 13 13 13 14 14 15 15 15 15 16 16 17 18 19 19 20 21 22 23 25 28 30 30 31 31 32 33 34 34 35 36 36 37 37 37 38 38 38 38
40 40 39 39 38 37 37 38 40 41 43 45 44 42 40 38 37 35 33 31 30 29 28 27 25 23 21 19 17 15 14 13 11 9 8 7 6 7 9 11 12 13 13 14 14 14 14 14 14 15 15 15 16 16 16 17 17 18 19 20 20 21 22 23 23 25 27 30 31 31 32 33 33 34 35 36 36 37 37 37 37 38 39 38 39
42 41 40 40 39 38 38 39 42 43 44 45 44 42 41 39 38 36 34 33 31 30 29 28 26 24 22 20 18 17 16 14 12 10 9 8 7 8 10 12 13 14 14 15 15 15 15 15 16 16 16 16 16 17 17 17 18 18 19 20 21 22 23 23 24 25 27 29 31 32 32 33 34 35 35 35 37 38 38 39 38 38 39 40 40
42 42 41 41 39 39 39 40 42 43 44 45 43 42 41 40 39 37 35 34 33 31 30 29 27 25 23 21 20 19 17 16 14 12 10 10 10 10 11 13 14 15 15 15 15 15 15 16 16 16 16 16 17 17 17 18 18 19 20 21 22 23 23 24 25 26 28 29 31 32 33 33 34 35 35 35 36 36 37 39 39 39 40 41 41
43 43 42 42 40 39 38 40 42 42 43 43 42 42 42 41 40 39 37 35 34 32 31 29 28 26 25 23 22 20 19 18 16 14 13 13 13 12 12 14 15 16 16 16 15 16 16 17 17 16 16 16 17 17 18 18 18 18 19 21 22 23 24 24 25 26 28 30 31 32 33 34 35 35 35 35 36 36 35 36 38 40 40 41 41
43 43 44 43 41 39 38 39 40 41 42 42 42 42 43 43 42 40 38 36 35 34 32 31 29 28 26 25 24 23 22 20 18 17 16 15 15 14 14 15 16 16 16 16 15 16 16 16 16 16 16 17 17 17 17 18 18 18 19 21 22 23 24 25 26 27 29 30 31 32 33 34 35 35 35 35 35 35 35 34 36 38 40 41 40
43 45 45 43 41 40 39 38 39 41 42 43 43 44 44 44 44 42 40 38 37 35 33 32 31 29 28 27 26 25 23 22 20 19 18 18 17 16 16 17 18 18 17 17 16 16 15 16 16 16 16 16 16 16 17 17 18 18 19 21 22 24 25 26 26 28 29 31 32 32 33 35 34 34 35 35 34 34 34 34 35 37 38 40 41
45 45 45 43 42 42 40 39 39 41 43 43 44 45 45 46 45 43 41 39 38 37 35 34 32 31 30 29 28 27 25 23 23 22 21 20 19 19 18 19 20 19 18 18 17 16 16 15 15 15 15 15 15 15 17 18 18 19 20 21 23 24 26 26 27 29 30 32 32 32 34 35 34 33 34 34 33 33 33 33 34 36 37 39 41
46 46 45 44 44 43 42 41 40 41 43 44 44 45 46 47 46 44 43 41 40 39 37 35 34 33 32 31 30 29 26 25 25 25 25 23 22 21 20 20 21 21 20 19 18 18 17 16 15 15 15 16 16 17 18 19 20 21 22 23 24 26 27 28 29 30 31 32 33 33 34 34 34 33 33 32 33 33 33 32 32 34 35 36 38
46 46 46 45 45 44 43 42 41 41 43 43 42 43 46 47 47 45 44 43 41 40 38 36 36 35 35 34 33 31 28 27 28 28 27 24 24 23 22 22 23 23 23 22 21 20 19 17 16 16 17 18 19 19 20 21 21 22 23 25 26 27 28 29 30 31 32 33 34 34 34 34 34 33 31 31 33 33 33 33 31 32 35 36 37
45 46 47 46 46 45 44 42 41 41 41 41 41 41 44 47 47 46 45 44 43 41 40 39 38 38 37 36 35 33 31 31 31 30 28 25 25 25 24 24 25 26 25 24 24 23 21 19 18 19 20 21 21 22 22 23 23 24 25 27 27 28 29 30 30 32 33 33 34 34 34 34 34 33 31 30 32 33 33 34 33 33 35 36 37
44 45 46 46 46 45 44 42 41 40 39 40 40 40 42 45 46 46 46 45 44 42 41 41 40 40 40 39 38 36 34 33 33 32 28 27 28 28 26 26 27 28 28 27 27 26 24 21 22 23 23 23 23 24 25 25 26 26 27 28 29 29 30 30 30 32 33 34 34 34 34 34 33 31 29 27 30 32 34 34 33 33 35 37 38
40 41 43 44 44 44 43 41 40 40 39 40 40 40 41 43 45 45 45 45 45 44 43 43 43 43 42 42 40 39 37 36 35 32 29 30 32 31 29 28 29 29 29 30 30 29 26 25 25 26 26 26 25 26 27 27 28 29 29 30 30 31 31 31 31 33 34 35 35 35 35 32 29 27 25 24 28 32 33 34 33 31 34 37 38
34 37 40 41 41 42 41 40 40 40 40 40 40 40 40 41 43 43 44 44 45 45 46 46 46 45 45 44 43 41 39 38 36 34 34 35 36 33 31 31 30 31 31 32 32 31 30 29 29 29 29 28 28 28 29 30 31 31 32 32 33 33 33 32 32 34 35 35 35 35 33 29 27 28 27 25 26 28 32 34 32 30 32 36 37
27 30 33 35 36 38 38 38 39 39 39 39 39 38 38 38 39 40 42 44 45 47 48 49 48 48 47 45 43 41 39 38 38 38 39 39 37 34 34 34 33 33 33 34 35 34 33 33 32 32 32 30 30 31 31 32 33 34 34 35 35 36 35 33 33 34 35 35 35 35 33 31 30 29 27 24 24 26 29 32 31 30 31 33 35
21 23 25 28 30 32 33 34 35 35 35 35 34 34 34 34 36 39 41 43 46 47 48 49 50 49 48 45 42 41 39 39 41 42 41 40 37 36 36 37 37 36 35 36 38 37 37 36 35 34 34 32 32 32 33 34 35 36 36 37 38 38 37 35 36 36 36 36 36 36 35 34 31 27 25 24 25 26 27 29 29 29 30 32 32
15 17 19 21 23 25 26 27 27 28 28 28 28 29 31 33 36 38 41 43 45 47 48 49 50 49 46 43 42 41 41 42 43 44 43 40 38 37 38 40 40 39 38 39 40 41 40 40 38 37 36 35 34 35 35 36 37 38 38 40 41 40 37 36 37 37 37 38 38 37 37 35 31 27 26 26 25 25 26 28 28 28 29 31 31
11 13 14 15 17 18 19 19 20 20 21 22 24 27 29 31 33 35 37 39 42 44 45 46 47 47 44 43 43 43 43 44 45 45 44 41 38 37 40 42 42 42 42 42 43 44 43 43 42 40 38 37 37 37 38 38 38 39 41 42 41 39 36 38 39 38 38 39 38 38 37 34 31 30 29 28 26 26 26 27 27 27 27 29 31
9 10 11 12 13 13 14 15 15 16 17 19 21 22 24 25 28 29 31 34 36 38 40 41 43 44 44 44 45 45 45 46 46 46 45 42 39 38 40 43 44 45 45 46 46 47 46 46 45 44 42 41 40 40 40 41 41 42 44 43 42 39 38 39 40 38 38 39 38 38 37 35 33 33 32 29 28 27 27 27 27 26 27 28 30
9 9 10 10 11 10 11 11 12 13 14 15 16 17 19 20 22 24 25 27 29 31 33 36 38 41 43 45 46 46 46 46 47 47 46 44 42 40 41 44 46 47 48 49 49 49 49 49 48 47 47 46 45 44 43 43 44 45 45 43 41 40 38 37 37 37 37 38 39 39 38 36 36 37 35 32 30 28 28 27 27 27 27 28 28
11 11 11 11 11 10 10 10 11 12 12 12 13 14 15 16 18 19 20 22 24 26 28 30 33 36 38 41 43 44 45 46 47 48 48 47 46 44 43 45 47 49 50 52 52 52 52 52 52 52 51 51 51 49 47 47 46 46 45 43 41 38 36 36 36 36 37 38 39 40 39 37 37 39 38 36 33 31 29 28 27 27 27 28 29
14 13 13 12 12 12 12 12 12 12 12 12 12 12 13 14 15 16 17 18 20 21 22 24 26 29 31 33 35 37 40 42 44 45 45 45 45 43 42 43 47 50 52 54 55 55 55 55 55 56 56 55 54 53 52 50 49 47 45 43 40 37 36 36 35 36 38 39 39 39 39 38 38 39 40 38 35 33 30 28 28 27 26 28 29
14 14 14 13 13 14 13 13 13 12 12 12 11 11 12 12 13 14 15 16 17 18 19 20 22 24 26 27 28 29 31 33 35 36 36 37 37 37 37 39 43 46 50 53 55 56 58 58 59 59 59 58 57 56 55 53 50 47 44 40 37 36 36 35 35 35 37 38 38 38 38 38 39 40 40 38 36 32 30 29 29 27 26 28 30
12 12 12 12 12 12 11 11 11 11 11 11 11 11 11 11 12 13 13 13 14 15 16 17 18 20 21 21 22 23 25 27 28 29 29 30 31 31 33 35 37 39 42 45 47 50 52 55 57 58 58 58 58 57 56 54 51 48 43 37 35 35 35 34 34 34 35 35 36 37 37 38 39 39 37 35 33 30 29 30 30 29 27 28 29
10 10 10 10 10 9 9 9 8 8 8 8 8 8 9 9 9 9 9 9 11 12 13 14 15 16 17 18 20 22 23 24 25 25 26 28 29 30 31 32 33 35 37 38 38 40 42 45 48 50 52 54 55 55 55 53 51 48 42 35 33 33 33 33 33 33 32 32 33 34 35 37 37 36 34 32 31 29 28 29 29 29 28 28 29
11 10 10 9 9 9 9 8 8 7 7 7 7 7 7 7 7 7 8 9 10 11 13 14 14 16 18 19 21 22 23 24 24 25 27 28 29 31 32 32 33 34 34 34 35 37 39 41 43 45 47 48 50 51 52 50 48 45 41 37 34 33 33 33 33 32 31 31 32 33 34 35 35 33 33 33 32 30 29 28 28 28 28 28 29
11 10 10 10 9 9 8 8 7 7 7 6 6 7 7 8 8 9 10 11 12 13 14 15 16 17 19 20 21 23 25 25 26 27 29 30 31 33 34 34 34 34 34 32 34 37 39 41 42 43 43 44 46 47 47 46 44 42 39 37 36 35 34 34 33 32 31 31 31 31 31 32 33 33 35 36 35 33 30 29 28 27 27 28 29
11 10 10 10 9 9 9 9 8 8 9 9 9 10 10 11 12 12 13 14 15 15 16 16 17 18 20 21 23 25 26 27 28 29 31 32 33 34 35 35 35 35 33 32 33 36 37 37 39 40 40 41 42 42 42 42 41 39 38 37 36 35 33 32 30 29 28 29 29 29 30 31 32 34 36 37 37 35 33 30 28 27 27 28 29
11 11 11 11 11 11 11 11 11 12 12 12 13 13 14 14 15 15 15 16 16 17 17 18 19 20 22 24 25 26 27 28 29 30 31 32 33 34 34 34 34 33 30 29 32 34 33 33 34 35 36 37 38 38 37 37 36 36 35 34 32 29 27 26 25 25 26 27 28 29 30 31 34 36 37 37 37 36 35 32 28 26 26 27 28
12 12 13 13 13 13 13 13 14 14 15 15 15 16 16 16 17 17 17 18 18 18 18 19 20 22 24 25 26 27 28 29 30 31 31 32 32 33 33 32 32 30 26 26 29 32 31 30 29 30 31 32 33 33 32 32 31 30 29 27 26 25 24 24 25 25 26 27 28 29 31 34 36 37 37 37 37 36 34 31 28 26 26 26 26
13 13 14 14 14 14 14 15 15 15 15 16 16 16 16 17 17 17 17 18 19 19 20 21 22 23 25 26 27 28 29 30 31 31 32 33 33 33 32 31 30 27 24 23 25 28 29 29 29 28 28 28 28 28 28 28 27 26 25 24 24 25 25 26 26 27 27 28 29 31 33 35 35 36 37 37 36 34 31 28 26 26 25 25 26
12 13 13 13 13 14 14 14 14 14 14 15 15 15 15 15 16 16 17 18 19 20 21 22 23 24 26 27 28 28 29 30 31 31 32 33 34 33 32 31 30 28 25 23 22 23 26 28 29 29 28 27 26 26 26 27 26 26 26 26 26 26 26 27 27 28 29 30 32 33 34 34 35 35 35 34 32 29 27 25 25 25 25 25 25
11 11 11 12 12 12 12 12 12 12 12 12 13 13 14 15 16 17 18 19 20 21 22 22 23 25 26 27 28 29 30 30 31 32 32 32 31 30 31 31 30 29 28 26 23 22 23 26 28 29 28 27 26 26 25 25 26 26 26 26 27 27 28 28 29 31 32 32 32 32 32 32 30 29 28 27 26 25 24 24 24 24 25 25 25
10 11 11 11 11 11 11 11 11 11 11 12 12 13 14 15 17 18 19 20 21 21 22 23 23 24 26 27 28 29 29 30 31 32 33 31 29 28 28 29 29 28 27 27 26 24 24 24 26 27 29 29 29 28 28 28 28 28 28 29 30 31 32 32 33 33 32 31 30 28 27 26 25 23 22 22 22 23 23 23 24 24 24 25 25
10 10 10 10 10 11 11 11 11 11 12 12 13 14 15 16 17 18 19 20 21 21 22 23 23 24 24 25 26 27 28 29 30 31 31 31 29 27 27 27 27 27 26 26 26 26 26 26 26 27 28 29 30 30 31 31 32 32 33 34 34 34 34 34 32 30 28 27 26 25 24 22 21 20 20 20 21 22 22 23 24 24 24 24 25
11 11 11 11 11 11 11 12 12 12 13 14 15 15 16 17 18 18 19 20 20 21 22 22 22 23 24 24 25 26 27 27 28 28 29 28 28 27 26 26 26 26 26 26 26 26 27 28 28 29 29 30 31 33 34 35 35 36 36 35 35 33 31 30 28 26 25 24 23 21 20 19 18 18 19 19 20 21 22 22 23 24 24 25 25
12 12 12 12 12 12 12 13 13 14 15 15 16 16 17 18 18 19 19 20 20 21 22 22 23 23 24 25 25 26 26 26 26 26 26 26 26 26 25 25 25 25 26 27 28 28 29 30 31 32 33 33 34 35 35 35 34 33 32 31 30 27 25 24 23 22 21 21 20 18 18 17 17 18 18 19 20 21 21 22 23 23 24 25 25
13 13 13 13 13 13 14 14 15 15 16 16 17 17 18 18 19 19 20 21 21 22 23 23 24 24 25 25 26 26 26 25 24 24 24 24 24 24 24 24 24 24 25 27 28 29 30 31 32 32 32 32 32 31 30 29 28 27 26 25 23 21 20 19 19 19 18 18 17 17 17 17 18 18 19 19 20 21 21 22 22 23 24 24 24
13 13 13 14 14 14 15 15 16 16 16 17 17 18 18 19 19 20 20 21 22 22 23 23 24 24 24 25 25 25 25 24 23 23 22 22 22 23 23 23 24 24 26 27 28 28 29 29 29 29 28 27 27 26 25 23 23 22 21 20 18 17 16 16 16 16 16 16 16 17 17 18 19 20 20 20 20 21 21 21 22 22 23 22 22
13 13 14 14 14 14 15 15 16 16 16 17 17 18 19 19 20 20 21 22 22 22 23 23 23 23 23 24 24 24 24 24 24 24 23 23 23 23 23 24 25 25 26 27 28 28 28 27 26 25 24 23 22 21 20 19 19 18 18 17 16 15 15 15 15 15 15 16 16 17 18 19 19 20 20 20 20 20 21 21 21 21 21 21 20
13 13 13 13 14 14 14 15 15 16 16 16 17 18 18 19 20 20 21 21 22 22 22 22 22 22 22 23 23 23 24 25 25 25 25 25 24 24 24 25 25 25 26 27 27 26 25 24 22 21 20 20 19 19 19 18 18 17 17 16 15 15 14 14 15 15 16 16 17 17 18 19 19 19 19 19 20 20 20 19 19 19 19 19 19
12 12 12 13 13 13 14 14 14 15 16 16 17 17 18 19 19 20 20 21 21 22 22 22 22 22 22 22 23 24 24 25 25 25 25 25 25 25 26 26 25 25 25 24 24 23 21 20 19 18 17 18 18 18 18 18 17 17 17 16 16 15 15 15 16 16 17 17 17 17 18 19 19 19 19 19 19 19 19 18 18 18 18 18 18
11 11 12 12 13 13 14 14 15 15 16 17 17 17 18 18 18 19 20 20 20 21 21 21 22 22 22 22 23 24 24 25 25 24 24 25 25 25 25 24 23 22 21 20 20 20 19 18 17 17 16 17 18 18 18 18 18 18 18 17 16 15 15 16 17 17 17 17 17 17 18 18 18 18 18 18 18 18 18 17 17 18 18 19 19
11 12 12 13 13 14 14 15 16 16 17 17 17 17 18 18 18 19 19 20 20 20 21 21 21 22 22 23 23 23 24 24 24 24 23 23 22 22 22 21 19 18 17 17 17 18 18 17 17 16 16 17 17 18 18 18 18 18 18 17 17 16 16 17 17 17 16 17 17 17 18 18 17 17 17 18 18 18 18 18 18 18 18 19 19
11 12 12 13 13 14 15 15 16 16 16 16 17 17 17 18 19 19 19 20 20 21 21 21 22 22 23 23 23 23 22 22 22 21 21 20 19 19 19 18 17 16 15 16 16 17 17 17 17 16 16 16 17 18 18 18 18 18 18 17 17 16 16 16 16 16 16 17 17 18 18 18 18 18 18 18 18 18 18 18 18 18 19 19 19
12 12 12 13 13 14 14 15 15 15 16 16 16 17 18 18 19 19 20 20 20 21 21 22 22 22 22 22 22 22 21 21 20 19 19 18 18 18 17 16 16 15 15 15 16 17 17 17 17 17 17 17 18 18 18 18 18 17 17 16 16 15 15 16 16 16 17 18 19 19 20 19 19 19 19 19 19 19 19 19 18 19 19 19 18
12 12 13 13 13 13 14 14 14 15 15 16 16 17 17 18 18 19 19 19 20 21 21 21 21 21 21 21 21 21 20 20 19 18 18 18 18 18 17 17 16 16 16 16 16 17 18 19 19 19 19 18 18 18 17 17 16 16 16 16 16 16 16 16 17 18 18 19 20 21 21 20 20 19 19 19 19 19 19 18 18 19 19 19 19
11 12 12 12 13 13 13 14 14 15 15 16 16 17 17 17 18 18 18 19 19 19 19 20 20 20 20 20 20 20 19 19 18 18 18 18 18 18 18 17 17 17 17 17 18 19 20 20 21 21 20 19 18 17 16 16 15 15 16 16 16 17 17 18 18 19 20 20 20 21 20 20 19 18 18 18 18 18 18 18 18 18 19 19 19
Wind_Direction
219 217 217 217 217 218 219 219 217 215 213 212 212 211 212 211 209 208 207 207 208 209 209 208 205 202 197 195 196 199 202 204 211 218 224 231 236 239 242 242 245 250 254 260 267 273 274 272 271 269 269 270 271 273 276 281 286 289 292 295 297 299 301 303 303 305 308 310 313 317 319 318 320 322 322 322 323 324 325 326 326 326 329 331 334
218 218 218 218 219 220 221 221 218 214 213 212 212 213 213 212 211 209 208 208 209 210 210 209 206 203 199 198 199 200 202 207 212 216 221 229 236 240 242 245 250 255 259 266 272 274 273 271 270 270 271 273 274 276 280 283 286 289 291 293 295 297 299 302 302 304 307 310 312 316 318 318 320 321 322 322 323 323 324 325 325 326 329 331 335
219 219 219 220 221 223 223 222 218 214 213 213 213 213 213 213 212 210 209 209 210 211 212 211 208 205 201 201 202 203 205 209 212 216 222 229 233 239 245 250 256 258 262 268 272 273 273 273 272 273 273 274 276 278 280 283 285 288 290 292 293 295 297 299 301 303 306 309 312 316 317 319 320 321 322 323 323 323 322 323 324 325 328 332 335
219 220 221 222 223 224 223 221 218 215 213 213 214 214 213 213 213 212 211 211 212 213 212 211 210 206 204 204 205 207 210 214 217 218 222 229 234 241 250 257 260 261 264 267 271 273 275 275 274 273 274 275 277 279 280 282 284 286 289 291 292 294 295 297 299 301 304 307 311 315 316 317 319 320 321 322 322 322 322 322 323 325 328 332 335
219 221 222 223 224 225 224 222 218 215 214 214 214 215 214 214 214 213 213 212 213 214 214 212 211 208 207 208 209 210 213 217 220 221 225 230 237 248 259 263 262 263 265 268 271 275 276 276 275 273 274 275 277 278 279 281 284 287 290 291 292 293 295 296 297 299 301 305 309 313 315 316 317 318 320 321 321 321 321 322 324 326 328 330 334
219 221 223 224 225 225 224 221 218 216 215 215 215 216 216 216 216 216 215 214 214 216 216 215 213 211 210 210 211 212 216 219 221 224 230 234 245 260 264 263 263 264 266 268 272 274 275 275 274 273 273 274 275 277 278 280 284 287 290 291 291 293 294 295 296 298 300 304 307 310 313 314 315 317 319 321 321 321 321 322 324 327 329 330 332
218 221 223 224 225 225 224 222 219 217 216 217 217 218 218 219 219 218 217 216 217 218 218 218 216 214 213 213 214 214 216 221 224 227 232 240 254 262 263 263 264 265 265 267 270 273 274 274 273 273 272 273 274 275 277 280 284 287 289 289 290 291 293 294 295 297 300 302 306 308 311 312 313 315 318 320 321 321 322 323 324 326 329 330 331
219 221 223 224 224 225 225 223 221 219 218 219 219 220 221 221 221 220 219 218 219 220 220 220 219 216 216 217 216 215 218 223 226 230 237 247 257 261 261 262 262 263 264 266 269 272 272 272 271 271 270 271 272 273 277 280 283 285 287 288 289 290 292 293 294 297 299 301 304 306 308 310 311 314 317 319 319 321 323 324 324 326 327 327 330
220 221 223 224 225 226 226 224 223 221 220 220 221 223 223 223 223 222 221 221 221 221 221 221 221 221 221 220 219 219 221 224 228 234 241 249 256 261 260 259 260 261 262 263 267 270 271 270 269 268 268 268 269 273 277 280 282 284 285 286 288 290 291 292 294 296 298 300 302 304 306 307 310 314 316 318 319 320 322 323 323 325 325 325 327
221 222 224 224 225 227 227 226 224 223 222 222 223 224 224 225 225 224 223 223 223 223 223 223 224 225 225 225 225 225 225 227 231 236 241 247 257 262 256 254 258 259 259 262 266 268 269 267 265 265 265 266 269 273 276 277 280 282 283 285 287 288 290 292 293 295 296 297 300 302 303 305 310 313 313 315 317 317 319 322 322 323 324 324 326
224 224 225 226 226 228 229 228 227 225 225 225 226 226 226 226 226 225 225 225 225 226 226 226 227 228 228 229 230 230 229 230 233 236 239 246 261 266 256 253 257 257 258 261 264 265 264 262 261 261 262 266 269 270 271 274 278 281 282 284 285 287 289 291 293 294 294 296 298 300 302 306 310 310 310 313 314 314 317 320 321 321 322 323 323
226 226 227 227 228 229 230 230 229 227 227 227 228 228 227 227 227 227 227 227 228 228 228 229 230 231 231 232 232 232 232 234 236 237 238 249 266 270 260 254 255 255 257 260 261 261 259 256 257 259 262 264 264 265 268 272 275 279 282 284 287 289 291 293 294 295 295 296 299 300 302 305 307 307 308 310 310 312 314 317 318 318 319 319 319
228 228 228 229 230 231 231 232 232 231 230 230 231 231 229 228 228 229 229 229 229 230 231 232 233 234 234 236 236 234 234 236 236 235 239 255 272 273 264 257 254 255 258 259 258 257 254 251 254 259 262 261 260 264 268 272 275 279 282 284 286 289 290 292 294 295 295 296 298 300 301 302 302 303 305 307 307 309 311 313 316 315 315 315 315
229 229 229 230 230 231 232 233 234 234 233 233 234 234 231 229 229 230 231 230 230 232 234 235 236 237 238 239 238 237 238 238 234 234 243 263 277 276 266 258 255 256 258 257 256 254 251 250 254 259 260 259 261 265 269 272 275 278 281 283 286 287 288 290 291 292 292 292 294 297 297 297 296 297 301 304 305 307 308 309 312 313 312 312 312
231 230 230 231 232 232 233 234 235 236 236 235 235 235 233 230 230 231 232 232 233 235 237 238 239 241 242 242 240 241 242 237 232 235 248 270 281 276 266 261 259 259 258 255 254 253 252 252 256 259 259 260 263 266 269 271 273 275 279 281 284 286 287 289 290 289 289 290 291 293 293 293 294 297 301 303 301 302 304 304 307 309 309 308 309
234 233 233 232 233 234 235 236 236 236 236 235 235 236 235 233 233 233 234 234 235 237 239 241 243 245 244 242 242 245 243 236 232 238 252 272 281 275 266 264 264 261 258 254 253 254 255 255 256 259 261 263 264 265 268 270 272 274 278 281 282 284 286 288 288 288 288 290 291 292 293 294 295 294 295 293 292 296 298 298 301 305 305 305 307
237 236 235 234 234 235 236 236 237 237 236 236 236 237 236 235 235 236 236 236 237 240 242 244 246 246 244 243 245 246 242 236 234 241 254 270 278 273 266 266 266 262 258 254 254 256 257 256 257 259 262 264 266 267 267 269 272 275 278 280 282 283 285 287 286 285 286 288 290 290 290 289 285 283 286 286 286 289 290 292 298 302 302 303 306
236 236 236 237 237 238 238 238 238 238 238 239 240 240 240 240 240 240 240 241 242 244 245 247 248 247 244 244 245 245 243 239 239 246 259 273 277 270 265 266 265 262 259 256 256 258 258 258 258 260 264 266 267 267 268 269 273 276 278 280 281 282 286 287 285 284 284 284 285 286 286 286 283 284 288 288 285 285 287 291 296 299 298 301 305
234 235 237 238 239 240 240 241 242 243 244 246 247 247 248 248 247 246 245 245 246 247 248 248 248 246 244 244 245 244 244 244 245 253 264 275 276 269 264 264 262 261 262 260 259 259 259 260 260 261 264 267 267 268 269 270 273 276 278 279 279 282 287 287 285 285 284 284 285 286 287 289 289 289 291 289 287 286 287 289 292 294 296 299 303
233 234 236 238 239 241 243 244 245 247 248 250 251 253 253 253 253 252 250 250 249 249 249 248 247 245 244 244 245 245 246 247 249 256 264 272 275 269 263 261 261 261 264 265 263 261 261 262 263 264 265 267 269 270 270 271 273 275 276 276 279 284 287 285 284 284 284 284 286 287 289 291 290 292 294 293 290 288 286 287 289 291 294 297 300
232 233 234 235 236 238 239 241 244 247 249 252 253 255 256 256 257 256 255 254 253 252 251 249 247 245 244 244 245 245 247 248 252 257 262 268 274 271 263 261 261 261 264 266 266 265 266 267 267 268 267 268 269 270 271 272 273 274 275 276 279 282 282 281 282 282 282 284 286 287 289 290 291 292 294 295 293 289 288 288 288 290 293 294 297
220 223 225 227 230 233 235 239 243 246 249 251 252 254 256 257 257 257 257 256 255 255 254 252 249 247 246 245 246 247 248 250 254 259 263 267 273 273 265 262 261 261 263 266 268 268 270 271 272 272 272 271 270 270 271 272 273 274 275 277 279 280 280 281 281 281 282 284 286 287 288 290 290 291 293 296 296 293 290 288 288 289 290 291 293
202 207 213 217 219 223 227 230 234 237 239 243 246 248 251 252 254 255 256 257 257 257 256 255 253 252 250 250 251 251 252 253 257 261 265 268 272 273 268 262 260 261 263 266 269 271 272 273 274 275 275 275 274 272 271 271 272 273 275 277 279 279 279 278 278 279 281 283 283 284 285 288 290 293 295 298 298 296 292 288 287 287 287 289 290
190 194 198 201 201 203 205 207 213 218 221 227 233 237 242 245 249 251 252 254 255 255 256 256 256 255 255 255 256 257 258 259 261 264 268 270 272 274 271 264 260 261 264 267 270 271 273 274 276 276 276 276 276 275 273 272 271 272 274 275 276 275 273 272 273 274 276 278 278 280 283 286 289 293 296 299 299 298 293 288 287 287 288 288 289
185 185 187 188 188 190 193 195 201 204 208 215 221 226 233 237 242 246 248 250 252 253 254 256 256 257 259 259 260 261 262 263 265 267 270 272 273 275 273 268 262 261 264 269 272 273 274 275 276 276 276 276 276 276 276 275 274 274 274 274 273 271 269 268 269 271 272 274 275 277 281 284 287 290 295 298 299 298 294 288 286 287 288 288 289
179 179 180 182 184 187 189 191 194 196 200 206 212 217 224 230 235 241 244 246 249 252 253 255 257 258 260 261 262 264 265 267 268 269 271 273 275 276 276 273 268 265 266 269 271 273 275 276 276 277 277 278 278 278 278 278 277 275 273 271 270 269 268 268 270 272 272 273 274 276 279 282 285 290 295 298 297 297 294 289 287 287 288 288 289
172 175 177 180 182 185 187 188 191 194 197 202 208 214 220 225 231 236 240 244 248 251 253 256 257 260 262 265 268 270 270 270 271 273 275 276 277 278 277 275 273 270 269 269 270 271 273 275 276 278 279 279 280 280 279 279 278 276 273 270 269 270 270 271 272 273 272 273 273 275 278 281 285 291 296 296 296 297 294 289 288 290 291 291 291
167 170 172 174 175 176 177 180 184 188 192 198 205 212 218 223 230 235 239 245 249 253 256 258 259 263 267 270 272 273 272 273 276 279 280 280 279 278 276 274 273 272 271 271 272 271 271 271 272 273 274 275 277 278 278 279 279 280 279 276 273 273 274 273 272 272 273 275 276 277 279 281 285 293 298 299 300 301 298 292 289 291 293 293 294
163 163 162 161 161 164 167 171 176 180 186 193 199 208 217 224 229 233 239 244 248 252 256 259 263 267 270 273 276 278 279 282 285 285 284 283 282 282 281 280 279 278 277 277 275 273 271 269 268 268 269 270 272 274 275 276 277 278 280 281 281 281 279 277 277 278 280 281 281 281 282 283 288 296 302 304 304 305 303 297 292 292 294 294 295
161 160 160 160 163 168 172 176 182 186 192 199 206 215 224 230 232 236 241 247 252 255 260 265 270 274 276 279 283 284 286 288 289 288 287 287 287 286 286 286 285 283 282 280 277 274 273 271 270 269 269 270 270 271 271 272 273 275 277 280 282 282 280 279 280 282 284 284 283 283 282 284 290 297 302 304 304 306 306 301 294 292 293 294 295
166 168 170 172 176 181 185 189 194 199 204 210 216 222 230 235 239 242 245 249 255 260 265 270 274 277 281 283 284 285 287 288 288 288 288 289 288 288 289 288 287 287 285 283 279 276 274 273 273 273 272 272 272 271 270 271 274 276 277 279 280 280 280 280 282 283 283 283 283 282 280 282 289 295 299 301 301 303 304 302 295 291 292 293 295
180 183 185 189 192 196 200 203 207 212 216 221 225 230 235 240 245 249 252 255 259 263 267 272 277 280 283 284 284 284 285 284 284 285 285 286 287 288 288 288 287 287 287 284 282 280 278 276 276 276 275 275 276 276 275 275 277 278 279 281 281 281 282 282 282 282 280 280 281 280 279 283 289 293 295 297 297 299 302 300 294 290 290 292 294
195 198 202 204 206 210 214 217 221 225 228 233 237 241 245 249 252 255 259 262 265 269 272 277 281 282 282 282 282 282 282 282 282 282 283 283 284 284 284 285 285 285 283 280 280 281 283 282 280 279 278 279 280 281 281 280 281 281 281 283 284 285 285 283 281 279 278 278 278 279 281 286 289 290 292 294 296 298 299 296 292 289 291 292 294
207 211 215 218 221 225 228 231 234 238 241 246 250 253 257 259 260 261 264 268 273 276 279 280 281 280 279 280 280 280 281 282 283 283 284 283 282 281 281 281 282 282 280 278 279 282 286 288 288 286 284 283 283 284 284 285 285 285 286 286 285 283 282 281 280 279 279 279 280 283 285 286 287 288 290 293 296 297 295 292 290 291 293 295 297
219 223 227 231 234 238 241 243 246 249 252 255 258 260 262 264 265 267 270 272 274 276 277 278 279 279 279 280 280 281 282 282 283 282 282 282 283 283 283 283 284 284 284 280 277 276 278 282 284 286 286 285 283 282 283 284 285 285 284 283 281 279 279 279 280 281 283 285 286 287 287 287 287 290 293 294 295 295 292 291 292 293 295 298 300
223 226 229 234 237 240 244 247 250 253 255 258 261 263 265 267 269 270 272 273 274 275 276 277 278 279 280 282 283 283 283 283 283 282 281 281 282 282 283 284 285 285 285 284 278 270 265 265 267 270 274 277 277 277 278 278 279 279 279 278 278 279 280 282 285 288 290 291 291 290 289 291 293 294 294 294 293 292 291 291 293 295 297 300 301
227 228 230 233 236 240 243 247 250 254 257 260 262 264 266 267 268 270 272 274 276 278 279 280 281 281 282 284 285 285 285 286 285 285 284 284 281 278 278 279 280 280 281 281 280 276 270 266 263 262 264 268 271 274 276 277 277 278 279 280 282 284 287 290 292 294 293 293 292 293 294 297 298 296 294 293 292 291 292 293 295 297 299 301 302
236 238 240 242 245 248 250 253 256 257 259 261 262 264 266 268 270 273 276 277 280 281 283 284 285 285 286 286 286 287 287 287 286 285 285 285 282 278 275 274 275 275 276 276 276 275 273 271 268 266 266 267 270 272 274 276 278 280 282 284 286 289 291 293 293 293 293 293 295 297 298 298 297 295 293 292 292 292 293 295 296 298 300 301 302
244 247 249 250 252 254 255 258 260 260 262 264 266 268 271 273 274 276 277 279 282 283 284 286 287 287 288 289 289 290 289 288 287 286 286 285 284 281 278 274 272 271 272 272 271 269 268 267 267 267 267 269 270 272 275 277 279 282 284 286 288 289 291 292 292 293 294 295 295 295 293 292 293 292 291 292 292 293 294 296 297 299 300 301 302
246 249 250 251 253 255 256 258 261 263 266 268 270 271 273 274 275 277 279 281 283 285 286 288 289 289 290 291 290 289 288 287 286 287 287 287 286 284 281 278 275 273 270 268 267 266 265 266 266 267 269 271 273 275 277 279 281 283 284 286 287 289 291 292 292 292 292 291 290 290 291 291 292 291 291 293 293 294 295 296 298 299 300 301 301
247 249 251 252 253 255 258 260 263 265 267 269 270 272 275 277 279 281 282 284 285 287 288 290 291 291 292 291 290 289 289 289 289 288 287 287 285 283 282 279 277 275 273 271 269 269 269 270 272 273 275 277 277 278 279 281 282 283 283 285 287 288 289 288 288 288 288 289 290 291 292 292 292 292 293 294 294 294 295 297 298 299 299 300 300
247 249 251 253 256 258 260 262 264 266 268 271 273 277 279 281 283 284 285 286 287 288 289 290 291 292 292 292 292 293 293 294 293 290 287 285 283 281 280 278 277 276 275 275 275 276 276 277 279 280 281 281 281 281 281 281 281 280 281 283 284 284 284 284 286 288 289 290 291 292 293 293 293 293 294 294 294 294 295 297 298 298 298 298 299
248 250 253 255 257 260 262 264 266 269 272 275 278 280 282 283 284 285 286 287 288 289 290 290 291 292 292 293 294 295 295 294 293 291 288 285 283 281 280 278 277 277 278 278 279 281 282 283 284 283 283 283 283 282 282 281 279 279 279 280 280 280 282 285 287 288 289 291 292 294 294 294 293 293 293 294 294 294 295 296 296 296 297 297 299
249 251 253 256 259 261 264 267 270 272 275 278 279 281 282 284 285 286 287 288 289 290 290 291 292 293 293 294 294 294 293 292 291 289 287 286 285 283 282 280 280 280 280 281 282 283 284 285 285 285 285 284 283 282 281 280 278 278 278 278 279 282 284 285 286 287 289 291 293 294 294 293 292 293 293 294 294 292 293 294 294 294 296 297 298
250 253 256 260 263 265 267 270 272 274 277 279 281 282 284 285 286 287 288 289 290 290 292 293 294 294 294 294 293 292 291 290 289 288 288 287 287 286 286 285 284 284 283 284 284 285 285 285 285 284 284 282 281 280 280 280 279 280 280 280 283 284 284 285 286 287 290 292 293 293 292 291 292 293 293 292 291 290 291 292 293 293 295 296 296
255 258 261 264 267 268 270 272 273 275 278 280 282 284 285 286 288 289 289 290 292 293 294 295 295 294 294 293 292 291 290 289 289 289 289 288 288 288 288 288 288 288 288 287 286 286 286 286 285 283 281 280 280 281 281 281 281 281 281 283 285 286 286 287 287 288 291 292 292 291 291 290 290 291 290 289 288 288 289 291 292 292 293 294 294
257 260 263 266 268 270 271 272 274 276 278 280 282 285 286 288 289 290 291 292 293 293 294 294 294 294 293 292 291 290 289 289 289 289 289 289 288 287 287 288 288 289 287 286 285 285 284 284 283 282 281 280 280 280 280 280 280 281 282 284 286 287 287 288 289 290 291 292 291 290 289 289 289 289 288 287 287 288 289 289 290 290 290 291 291
259 262 266 269 270 271 273 274 275 277 279 281 284 286 287 289 290 290 291 292 292 293 293 293 293 292 291 290 290 290 289 289 289 289 289 288 287 285 285 286 286 285 283 281 281 281 281 281 282 282 280 279 278 277 277 278 278 280 282 283 285 286 286 287 289 291 291 291 290 289 288 288 287 287 286 286 286 287 287 287 288 289 288 288 289
263 266 269 272 273 274 276 277 279 280 282 284 286 287 287 288 289 289 290 291 292 292 292 291 290 290 291 291 291 291 290 290 290 289 288 287 285 284 284 284 283 282 280 279 280 281 282 283 283 282 281 279 278 277 277 277 277 278 280 282 284 285 286 288 290 291 291 290 289 288 287 287 287 286 286 286 285 285 286 287 287 287 286 286 287
266 268 270 273 275 276 278 280 281 283 285 286 286 287 287 288 288 289 291 291 291 291 291 291 292 293 294 294 294 294 294 293 292 291 289 288 286 284 284 284 283 282 282 281 281 282 283 283 283 283 282 281 279 277 275 275 275 276 279 281 283 285 287 288 290 290 289 289 288 287 286 287 286 286 286 286 284 284 285 286 285 284 284 284 283
267 269 272 274 275 277 280 281 283 285 286 286 287 288 288 289 290 290 290 290 290 291 293 295 296 297 297 297 297 296 295 295 294 292 290 288 286 285 286 287 286 286 286 285 284 284 283 283 283 283 282 281 278 275 274 275 275 276 279 281 283 286 288 289 289 289 288 287 286 285 285 286 286 286 286 284 283 284 283 282 281 281 280 279 279